This is the latest recevied weather packets stored in our database for station/object SP7QPD-1. If no packets are shown the sender has not sent any weather packets the latest 10 day(s).
| Time | Temp. | Humidity | Pressure | Rain* | Wind** | Luminosity | Snow |
|---|---|---|---|---|---|---|---|
| 1778151221 | 15° C | 65% | 1008.9 hPa | 0 mm | - | - | - |
| 1778150620 | 15° C | 64% | 1008.8 hPa | 0 mm | - | - | - |
| 1778150021 | 15° C | 63% | 1008.7 hPa | 0 mm | - | - | - |
| 1778149420 | 15° C | 62% | 1008.6 hPa | 0 mm | - | - | - |
| 1778148820 | 15° C | 59% | 1008.4 hPa | 0 mm | - | - | - |
| 1778148220 | 14.44° C | 58% | 1008.3 hPa | 0 mm | - | - | - |
| 1778147620 | 14.44° C | 57% | 1008.2 hPa | 0 mm | - | - | - |
| 1778147020 | 14.44° C | 57% | 1008.1 hPa | 0 mm | - | - | - |
| 1778146420 | 14.44° C | 58% | 1007.9 hPa | 0 mm | - | - | - |
| 1778145820 | 14.44° C | 58% | 1007.9 hPa | 0 mm | - | - | - |
| 1778145220 | 15° C | 60% | 1007.6 hPa | 0 mm | - | - | - |
| 1778144620 | 15° C | 61% | 1007.5 hPa | 0 mm | - | - | - |
| 1778144020 | 15° C | 61% | 1007.2 hPa | 0 mm | - | - | - |
| 1778143419 | 15° C | 61% | 1007.2 hPa | 0 mm | - | - | - |
| 1778142819 | 15° C | 60% | 1007 hPa | 0 mm | - | - | - |
| 1778142219 | 15° C | 60% | 1006.6 hPa | 0 mm | - | - | - |
| 1778141619 | 15.56° C | 58% | 1006.5 hPa | 0 mm | - | - | - |
| 1778141019 | 15.56° C | 57% | 1006.4 hPa | 0 mm | - | - | - |
| 1778140419 | 15.56° C | 56% | 1006.3 hPa | 0 mm | - | - | - |
| 1778139819 | 15° C | 56% | 1006.2 hPa | 0 mm | - | - | - |
| 1778139219 | 15° C | 56% | 1006.1 hPa | 0 mm | - | - | - |
| 1778138619 | 15° C | 58% | 1006 hPa | 0 mm | - | - | - |
| 1778138019 | 15.56° C | 60% | 1005.9 hPa | 0 mm | - | - | - |
| 1778137419 | 15.56° C | 60% | 1005.8 hPa | 0 mm | - | - | - |
| 1778136818 | 15.56° C | 60% | 1005.6 hPa | 0 mm | - | - | - |
* Rain latest hour (hover to see other rain measurements)
** Current wind speed in m/s (hover to see current wind gust speed)